FW1304 Weather Reports


time (UTC)temp
C
wind
direction
speed
KPH
gust
KPH
rain 1hr
cm
rain 24hr
cm
rain mn
cm
humidity
%
barometer
mb
20260906191329 26 217 0.0 1.6 0.00 0.00 0.00 73 1015.7
20260906190858 26 213 0.0 0.0 0.00 0.00 0.00 73 1015.9
20260906190340 26 131 0.0 0.0 0.00 0.00 0.00 73 1015.9
20260906185825 26 169 0.0 0.0 0.00 0.00 0.00 73 1015.9
20260906185329 26 201 0.0 0.0 0.00 0.00 0.00 73 1016.0
20260906184829 26 132 0.0 0.0 0.00 0.00 0.00 73 1016.0
20260906184333 26 162 0.0 0.0 0.00 0.00 0.00 74 1015.9
20260906183818 26 194 0.0 0.0 0.00 0.00 0.00 74 1015.9
20260906183321 26 114 0.0 0.0 0.00 0.00 0.00 74 1015.9
20260906182836 26 213 0.0 0.0 0.00 0.00 0.00 74 1016.0
20260906182332 26 172 0.0 1.6 0.00 0.00 0.00 74 1016.1
20260906181818 26 117 0.0 3.2 0.00 0.00 0.00 73 1016.2
20260906181339 26 237 0.0 3.2 0.00 0.00 0.00 74 1016.2
20260906180841 26 92 0.0 1.6 0.00 0.00 0.00 73 1016.0
20260906180318 26 154 0.0 1.6 0.00 0.00 0.00 73 1016.0
20260906175831 26 119 0.0 1.6 0.00 0.00 0.00 72 1015.9
20260906175333 26 191 0.0 3.2 0.00 0.00 0.00 73 1016.1
20260906174837 26 212 0.0 3.2 0.00 0.00 0.00 73 1016.1
20260906174325 26 213 0.0 1.6 0.00 0.00 0.00 73 1016.0
20260906173829 26 173 0.0 1.6 0.00 0.00 0.00 72 1016.0
20260906173342 26 203 0.0 1.6 0.00 0.00 0.00 72 1016.1
20260906172830 26 205 0.0 3.2 0.00 0.00 0.00 72 1016.0
20260906172354 26 202 0.0 3.2 0.00 0.00 0.00 73 1015.9
20260906171836 26 130 0.0 0.0 0.00 0.00 0.00 74 1016.0
20260906171329 26 129 0.0 3.2 0.00 0.00 0.00 74 1016.2
20260906170859 26 124 0.0 1.6 0.00 0.00 0.00 74 1016.2
20260906170341 26 115 0.0 1.6 0.00 0.00 0.00 74 1016.2
20260906165823 26 139 0.0 1.6 0.00 0.00 0.00 75 1016.2
20260906165357 26 207 0.0 1.6 0.00 0.00 0.00 75 1016.4
20260906164833 26 161 0.0 1.6 0.00 0.00 0.00 75 1016.4
20260906164317 26 84 0.0 3.2 0.00 0.00 0.00 75 1016.4
20260906163820 26 191 0.0 3.2 0.00 0.00 0.00 76 1016.4
20260906163332 26 190 0.0 1.6 0.00 0.00 0.00 76 1016.5
20260906162819 25 160 0.0 1.6 0.00 0.00 0.00 76 1016.6
20260906162319 25 208 0.0 1.6 0.00 0.00 0.00 76 1016.4
20260906161830 25 143 0.0 1.6 0.00 0.00 0.00 77 1016.5
20260906161341 25 160 0.0 1.6 0.00 0.00 0.00 77 1016.4
20260906160845 25 167 0.0 1.6 0.00 0.00 0.00 78 1016.4
20260906160343 25 186 0.0 1.6 0.00 0.00 0.00 77 1016.6
20260906155828 25 120 0.0 1.6 0.00 0.00 0.00 77 1016.6
20260906155332 25 134 0.0 1.6 0.00 0.00 0.00 77 1016.7
20260906154844 25 169 0.0 0.0 0.00 0.00 0.00 77 1016.7
20260906154331 25 257 0.0 1.6 0.00 0.00 0.00 78 1016.7
20260906153835 25 188 0.0 1.6 0.00 0.00 0.00 78 1016.6
20260906153337 25 131 0.0 1.6 0.00 0.00 0.00 78 1016.6
20260906152831 25 230 0.0 0.0 0.00 0.00 0.00 78 1016.7
20260906152333 25 117 0.0 1.6 0.00 0.00 0.00 79 1016.8
20260906151837 25 234 0.0 1.6 0.00 0.00 0.00 78 1016.9
20260906151322 25 180 0.0 1.6 0.00 0.00 0.00 79 1017.0
20260906150834 25 149 0.0 1.6 0.00 0.00 0.00 80 1017.0
20260906150334 24 209 0.0 0.0 0.00 0.00 0.00 81 1016.9
20260906145821 24 213 0.0 0.0 0.00 0.00 0.00 82 1016.8
20260906145332 24 204 0.0 0.0 0.00 0.00 0.00 82 1016.8
20260906144844 23 217 0.0 0.0 0.00 0.00 0.00 82 1016.8
20260906144325 23 164 0.0 0.0 0.00 0.00 0.00 83 1016.7
20260906143838 23 207 0.0 1.6 0.00 0.00 0.00 83 1016.7
20260906143342 23 179 0.0 1.6 0.00 0.00 0.00 84 1016.6
20260906142829 23 173 0.0 0.0 0.00 0.00 0.00 85 1016.6
20260906142328 23 142 0.0 0.0 0.00 0.00 0.00 85 1016.6
20260906141832 23 200 0.0 0.0 0.00 0.00 0.00 87 1016.6
20260906141318 22 187 0.0 0.0 0.00 0.00 0.00 88 1016.7
20260906140850 22 191 0.0 1.6 0.00 0.00 0.00 88 1016.7
20260906140327 22 179 0.0 1.6 0.00 0.00 0.00 88 1016.6
20260906135820 22 155 0.0 0.0 0.00 0.00 0.00 88 1016.7
20260906135324 22 156 0.0 0.0 0.00 0.00 0.00 88 1016.7
20260906134856 22 114 0.0 0.0 0.00 0.00 0.00 88 1016.7
20260906134317 21 128 0.0 0.0 0.00 0.00 0.00 88 1016.8
20260906133828 21 126 0.0 0.0 0.00 0.00 0.00 88 1016.7
20260906133331 21 132 0.0 0.0 0.00 0.00 0.00 87 1016.6
20260906132818 21 136 0.0 0.0 0.00 0.00 0.00 87 1016.6
20260906132319 21 134 0.0 0.0 0.00 0.00 0.00 87 1016.5
20260906131831 21 138 0.0 0.0 0.00 0.00 0.00 87 1016.5
20260906131343 20 120 0.0 1.6 0.00 0.00 0.00 87 1016.5
20260906130825 20 130 0.0 0.0 0.00 0.00 0.00 87 1016.5
20260906130331 20 117 0.0 0.0 0.00 0.00 0.00 88 1016.6
20260906125835 20 136 0.0 0.0 0.00 0.00 0.00 87 1016.5
20260906125338 20 121 0.0 0.0 0.00 0.00 0.00 87 1016.5
20260906124841 20 128 0.0 0.0 0.00 0.00 0.00 87 1016.5
20260906124321 20 126 0.0 0.0 0.00 0.00 0.00 87 1016.4
20260906123824 20 148 0.0 0.0 0.00 0.00 0.00 87 1016.4
20260906123328 20 154 0.0 0.0 0.00 0.00 0.00 88 1016.4
20260906122845 20 113 0.0 0.0 0.00 0.00 0.00 88 1016.4
20260906122345 20 134 0.0 0.0 0.00 0.00 0.00 88 1016.4
20260906121818 20 127 0.0 0.0 0.00 0.00 0.00 88 1016.4
20260906121340 20 126 0.0 0.0 0.00 0.00 0.00 88 1016.4
20260906120855 19 158 0.0 0.0 0.00 0.00 0.00 88 1016.4
20260906120403 19 159 0.0 0.0 0.00 0.00 0.00 88 1016.4
20260906115836 19 159 0.0 0.0 0.00 0.00 0.00 88 1016.5
20260906115338 19 159 0.0 0.0 0.00 0.00 0.00 88 1016.4
20260906114823 19 159 0.0 0.0 0.00 0.00 0.00 88 1016.3
20260906114330 19 159 0.0 0.0 0.00 0.00 0.00 88 1016.2
20260906113834 19 159 0.0 0.0 0.00 0.00 0.00 88 1016.1
20260906113338 19 159 0.0 0.0 0.00 0.00 0.00 88 1016.1
20260906112825 20 160 0.0 0.0 0.00 0.00 0.00 88 1016.1
20260906112353 20 160 0.0 0.0 0.00 0.00 0.00 88 1016.2
20260906111834 20 160 0.0 0.0 0.00 0.00 0.00 88 1016.3
20260906111320 20 160 0.0 0.0 0.00 0.00 0.00 88 1016.2
20260906110835 20 160 0.0 0.0 0.00 0.00 0.00 88 1016.1
20260906110334 20 160 0.0 0.0 0.00 0.00 0.00 88 1016.2
20260906105847 20 160 0.0 0.0 0.00 0.00 0.00 88 1016.1
20260906105330 20 160 0.0 0.0 0.00 0.00 0.00 88 1016.0
20260906104843 20 160 0.0 0.0 0.00 0.00 0.00 88 1015.9
20260906104326 20 148 0.0 0.0 0.00 0.00 0.00 88 1015.8
20260906103834 20 139 0.0 0.0 0.00 0.00 0.00 88 1015.7
20260906103338 20 130 0.0 0.0 0.00 0.00 0.00 88 1015.6
20260906102825 20 130 0.0 0.0 0.00 0.00 0.00 88 1015.6
20260906102326 20 129 0.0 0.0 0.00 0.00 0.00 88 1015.6
20260906101857 20 129 0.0 0.0 0.00 0.00 0.00 88 1015.7
20260906101338 20 129 0.0 0.0 0.00 0.00 0.00 88 1015.8
20260906100841 20 129 0.0 0.0 0.00 0.00 0.00 88 1015.8
20260906100319 20 129 0.0 0.0 0.00 0.00 0.00 88 1015.9
20260906095837 20 129 0.0 0.0 0.00 0.00 0.00 88 1015.8
20260906095320 20 129 0.0 0.0 0.00 0.00 0.00 88 1015.7
20260906094854 20 116 0.0 0.0 0.00 0.00 0.00 88 1015.6
20260906094342 20 115 0.0 0.0 0.00 0.00 0.00 88 1015.4
20260906093844 20 117 0.0 0.0 0.00 0.00 0.00 88 1015.3
20260906093329 20 117 0.0 0.0 0.00 0.00 0.00 88 1015.2
20260906092844 20 128 0.0 0.0 0.00 0.00 0.00 88 1015.1
20260906092324 21 128 0.0 0.0 0.00 0.00 0.00 88 1015.0
20260906091857 21 128 0.0 0.0 0.00 0.00 0.00 88 1015.1
20260906091322 21 130 0.0 0.0 0.00 0.00 0.00 88 1015.1
20260906090835 21 130 0.0 0.0 0.00 0.00 0.00 88 1015.0
20260906090336 21 130 0.0 0.0 0.00 0.00 0.00 88 1015.0
20260906085818 21 115 0.0 0.0 0.00 0.00 0.00 88 1015.0
20260906085322 21 113 0.0 0.0 0.00 0.00 0.00 88 1014.9
20260906084854 21 136 0.0 0.0 0.00 0.00 0.00 88 1014.9
20260906084342 21 138 0.0 0.0 0.00 0.00 0.00 88 1015.0
20260906083845 21 112 0.0 0.0 0.00 0.00 0.00 88 1015.1
20260906083359 21 111 0.0 0.0 0.00 0.00 0.00 88 1015.0
20260906082825 21 111 0.0 0.0 0.00 0.00 0.00 88 1015.0
20260906082323 21 111 0.0 0.0 0.00 0.00 0.00 88 1015.0
20260906081835 21 111 0.0 0.0 0.00 0.00 0.00 88 1015.1
20260906081338 21 111 0.0 0.0 0.00 0.00 0.00 88 1015.1
20260906080823 21 111 0.0 0.0 0.00 0.00 0.00 88 1015.0
20260906080337 21 110 0.0 0.0 0.00 0.00 0.00 87 1015.0
20260906075820 21 109 0.0 0.0 0.00 0.00 0.00 87 1015.0
20260906075323 21 116 0.0 0.0 0.00 0.00 0.00 87 1014.9
20260906074834 21 115 0.0 0.0 0.00 0.00 0.00 87 1015.0
20260906074347 21 115 0.0 0.0 0.00 0.00 0.00 87 1015.1
20260906073829 21 115 0.0 0.0 0.00 0.00 0.00 87 1015.2
20260906073321 21 115 0.0 0.0 0.00 0.00 0.00 87 1015.2
20260906072833 21 115 0.0 0.0 0.00 0.00 0.00 87 1015.1
20260906072316 21 115 0.0 0.0 0.00 0.00 0.00 87 1015.2
20260906071844 21 117 0.0 0.0 0.00 0.00 0.00 87 1015.1
20260906071357 21 119 0.0 0.0 0.00 0.00 0.00 87 1015.2
20260906070838 21 114 0.0 0.0 0.00 0.00 0.00 87 1015.3
20260906070321 21 157 0.0 0.0 0.00 0.00 0.00 87 1015.4
20260906065831 21 157 0.0 0.0 0.00 0.00 0.00 87 1015.4
20260906065334 21 157 0.0 0.0 0.00 0.00 0.00 87 1015.5
20260906064837 21 157 0.0 0.0 0.00 0.00 0.00 87 1015.5
20260906064352 21 157 0.0 0.0 0.00 0.00 0.00 87 1015.5
20260906063840 21 158 0.0 0.0 0.00 0.00 0.00 87 1015.5
20260906063345 21 158 0.0 0.0 0.00 0.00 0.00 87 1015.5
20260906062831 21 158 0.0 0.0 0.00 0.00 0.00 87 1015.5
20260906062343 21 158 0.0 0.0 0.00 0.00 0.00 87 1015.5
20260906061837 21 158 0.0 0.0 0.00 0.00 0.00 87 1015.5
20260906061351 21 158 0.0 0.0 0.00 0.00 0.00 87 1015.4
20260906060833 21 158 0.0 0.0 0.00 0.00 0.00 86 1015.4
20260906060317 22 158 0.0 0.0 0.00 0.00 0.00 86 1015.3
20260906055836 22 163 0.0 0.0 0.00 0.00 0.00 86 1015.3
20260906055340 22 163 0.0 0.0 0.00 0.00 0.00 86 1015.3
20260906054843 22 163 0.0 0.0 0.00 0.00 0.00 86 1015.3
20260906054337 22 163 0.0 0.0 0.00 0.00 0.00 86 1015.4
20260906053836 22 164 0.0 0.0 0.00 0.00 0.00 86 1015.4
20260906053339 22 162 0.0 0.0 0.00 0.00 0.00 86 1015.3
20260906052840 22 162 0.0 0.0 0.00 0.00 0.00 86 1015.3
20260906052344 22 163 0.0 0.0 0.00 0.00 0.00 86 1015.3
20260906051844 22 163 0.0 0.0 0.00 0.00 0.00 85 1015.4
20260906051329 22 163 0.0 0.0 0.00 0.00 0.00 85 1015.3
20260906050903 22 164 0.0 0.0 0.00 0.00 0.00 85 1015.4
20260906050345 22 165 0.0 0.0 0.00 0.00 0.00 84 1015.4
20260906045827 22 165 0.0 0.0 0.00 0.00 0.00 84 1015.5
20260906045331 22 165 0.0 0.0 0.00 0.00 0.00 83 1015.4
20260906044834 23 165 0.0 0.0 0.00 0.00 0.00 83 1015.4
20260906044319 23 165 0.0 0.0 0.00 0.00 0.00 83 1015.5
20260906043817 23 166 0.0 0.0 0.00 0.00 0.00 83 1015.4
20260906043319 23 165 0.0 0.0 0.00 0.00 0.00 82 1015.4
20260906042822 23 166 0.0 0.0 0.00 0.00 0.00 82 1015.5
20260906042326 23 166 0.0 0.0 0.00 0.00 0.00 81 1015.5
20260906041855 23 166 0.0 0.0 0.00 0.00 0.00 81 1015.5
20260906041347 23 166 0.0 0.0 0.00 0.00 0.00 81 1015.5
20260906040830 23 166 0.0 0.0 0.00 0.00 0.00 80 1015.5
20260906040334 23 166 0.0 0.0 0.00 0.00 0.00 80 1015.6
20260906035845 23 166 0.0 0.0 0.00 0.00 0.00 80 1015.5
20260906035328 23 166 0.0 0.0 0.00 0.00 0.00 80 1015.6
20260906034830 23 166 0.0 0.0 0.00 0.00 0.00 79 1015.5
20260906034344 23 167 0.0 0.0 0.00 0.00 0.00 79 1015.6
20260906033817 24 167 0.0 0.0 0.00 0.00 0.00 79 1015.6
20260906033320 24 167 0.0 0.0 0.00 0.00 0.00 79 1015.6
20260906032831 24 167 0.0 0.0 0.00 0.00 0.00 79 1015.7
20260906032333 24 167 0.0 0.0 0.00 0.00 0.00 79 1015.8
20260906031839 24 167 0.0 0.0 0.00 0.00 0.00 79 1015.8
20260906031326 24 167 0.0 0.0 0.00 0.00 0.00 79 1015.8
20260906030827 24 178 0.0 0.0 0.00 0.00 0.00 78 1015.8
20260906030330 24 182 0.0 0.0 0.00 0.00 0.00 78 1015.8
20260906025844 24 184 0.0 0.0 0.00 0.00 0.00 78 1015.9
20260906025344 24 184 0.0 0.0 0.00 0.00 0.00 78 1015.8
20260906024818 24 202 0.0 0.0 0.00 0.00 0.00 78 1015.6
20260906024338 24 202 0.0 0.0 0.00 0.00 0.00 78 1015.6
20260906023837 24 213 0.0 0.0 0.00 0.00 0.00 78 1015.8
20260906023340 24 192 0.0 0.0 0.00 0.00 0.00 78 1015.8
20260906022823 24 129 0.0 0.0 0.00 0.00 0.00 78 1015.6
20260906022333 24 128 0.0 0.0 0.00 0.00 0.00 78 1015.5
20260906021816 24 128 0.0 0.0 0.00 0.00 0.00 77 1015.4
20260906021324 24 130 0.0 0.0 0.00 0.00 0.00 77 1015.3
20260906020826 24 131 0.0 0.0 0.00 0.00 0.00 77 1015.3
20260906020329 25 132 0.0 0.0 0.00 0.00 0.00 77 1015.1
20260906015817 25 132 0.0 0.0 0.00 0.00 0.00 76 1014.9
20260906015347 25 132 0.0 0.0 0.00 0.00 0.00 76 1014.8
20260906014838 25 134 0.0 0.0 0.00 0.00 0.00 76 1014.6
20260906014332 25 142 0.0 0.0 0.00 0.00 0.00 76 1014.5
20260906013831 25 146 0.0 0.0 0.00 0.00 0.00 75 1014.3
20260906013334 25 123 0.0 0.0 0.00 0.00 0.00 75 1014.2
20260906012828 25 118 0.0 0.0 0.00 0.00 0.00 75 1014.0
20260906012331 25 119 0.0 0.0 0.00 0.00 0.00 75 1013.9
20260906011816 25 119 0.0 0.0 0.00 0.00 0.00 74 1013.8
20260906011333 25 119 0.0 0.0 0.00 0.00 0.00 74 1013.5
20260906010844 25 132 0.0 0.0 0.00 0.00 0.00 74 1013.6
20260906010318 25 133 0.0 0.0 0.00 0.00 0.00 74 1013.5
20260906005833 26 133 0.0 0.0 0.00 0.00 0.00 73 1013.5
20260906005334 26 133 0.0 0.0 0.00 0.00 0.00 73 1013.4
20260906004818 26 134 0.0 0.0 0.00 0.00 0.00 72 1013.2
20260906004335 26 134 0.0 0.0 0.00 0.00 0.00 72 1013.1
20260906003838 26 132 0.0 0.0 0.00 0.00 0.00 71 1013.2
20260906003337 26 132 0.0 0.0 0.00 0.00 0.00 71 1013.2
20260906002820 26 133 0.0 0.0 0.00 0.00 0.00 71 1013.1
20260906002330 26 136 0.0 0.0 0.00 0.00 0.00 70 1013.1
20260906001833 26 129 0.0 0.0 0.00 0.00 0.00 70 1012.9
20260906001343 27 101 0.0 0.0 0.00 0.00 0.00 69 1012.8
20260906000826 27 97 0.0 1.6 0.00 0.00 0.00 69 1012.8
20260906000340 27 95 0.0 1.6 0.00 0.00 0.00 69 1012.6
20260905235826 27 124 0.0 0.0 0.00 0.00 0.00 68 1012.8
20260905235325 27 131 0.0 0.0 0.00 0.00 0.00 68 1012.9
20260905234835 27 148 0.0 0.0 0.00 0.00 0.00 68 1013.1
20260905234359 27 135 0.0 0.0 0.00 0.00 0.00 68 1013.1
20260905233842 27 128 0.0 0.0 0.00 0.00 0.00 68 1013.0
20260905233339 27 147 0.0 0.0 0.00 0.00 0.00 68 1013.0
20260905232904 27 141 0.0 3.2 0.00 0.00 0.00 67 1013.0
20260905232329 27 121 0.0 6.4 0.00 0.00 0.00 67 1013.0
20260905231831 27 88 0.0 6.4 0.00 0.00 0.00 67 1012.9
20260905231340 27 109 0.0 6.4 0.00 0.00 0.00 67 1013.0
20260905230824 27 126 0.0 6.4 0.00 0.00 0.00 66 1013.0
20260905230339 27 78 0.0 6.4 0.00 0.00 0.00 67 1013.0
20260905225821 27 105 0.0 3.2 0.00 0.00 0.00 67 1013.1
20260905225350 27 139 0.0 3.2 0.00 0.00 0.00 67 1013.1
20260905224901 27 64 0.0 3.2 0.00 0.00 0.00 66 1013.0
20260905224342 27 178 0.0 3.2 0.00 0.00 0.00 66 1012.8
20260905223816 27 188 0.0 1.6 0.00 0.00 0.00 66 1012.7
20260905223319 28 132 0.0 1.6 0.00 0.00 0.00 67 1012.6
20260905222830 28 225 0.0 3.2 0.00 0.00 0.00 66 1012.6
20260905222334 28 119 0.0 3.2 0.00 0.00 0.00 66 1012.7
20260905221818 28 92 0.0 6.4 0.00 0.00 0.00 65 1012.7
20260905221333 28 75 0.0 6.4 0.00 0.00 0.00 65 1012.6
20260905220833 28 124 1.6 6.4 0.00 0.00 0.00 64 1012.6
20260905220338 28 80 0.0 6.4 0.00 0.00 0.00 65 1012.7
20260905215840 28 101 0.0 6.4 0.00 0.00 0.00 65 1012.8
20260905215343 28 115 0.0 6.4 0.00 0.00 0.00 66 1012.8
20260905214844 28 78 0.0 6.4 0.00 0.00 0.00 66 1012.7
20260905214329 28 89 0.0 3.2 0.00 0.00 0.00 66 1012.8
20260905213830 28 80 0.0 3.2 0.00 0.00 0.00 66 1013.0
20260905213342 28 77 0.0 3.2 0.00 0.00 0.00 67 1013.0
20260905212821 28 87 0.0 3.2 0.00 0.00 0.00 66 1013.0
20260905212325 28 52 0.0 3.2 0.00 0.00 0.00 67 1013.1
20260905211829 28 26 0.0 1.6 0.00 0.00 0.00 67 1013.2
20260905211342 28 83 0.0 3.2 0.00 0.00 0.00 66 1013.4
20260905210842 28 101 0.0 3.2 0.00 0.00 0.00 67 1013.5
20260905210316 27 54 0.0 6.4 0.00 0.00 0.00 68 1013.5
20260905205832 27 83 1.6 6.4 0.00 0.00 0.00 68 1013.4
20260905205334 27 80 0.0 6.4 0.00 0.00 0.00 68 1013.4
20260905204816 27 68 0.0 6.4 0.00 0.00 0.00 68 1013.7
20260905204333 27 41 0.0 3.2 0.00 0.00 0.00 69 1013.7
20260905203838 27 58 0.0 3.2 0.00 0.00 0.00 69 1013.9
20260905203337 27 47 0.0 3.2 0.00 0.00 0.00 69 1013.9
20260905202848 27 89 0.0 3.2 0.00 0.00 0.00 69 1014.1
20260905202331 27 98 0.0 1.6 0.00 0.00 0.00 70 1014.3
20260905201838 27 132 0.0 1.6 0.00 0.00 0.00 70 1014.4
20260905201324 27 40 0.0 0.0 0.00 0.00 0.00 70 1014.5
20260905200819 27 214 0.0 1.6 0.00 0.00 0.00 71 1014.5
20260905200323 27 109 0.0 1.6 0.00 0.00 0.00 70 1014.6
20260905195827 26 85 0.0 0.0 0.00 0.00 0.00 70 1014.5
20260905195330 26 40 0.0 0.0 0.00 0.00 0.00 71 1014.6
20260905194842 26 61 0.0 0.0 0.00 0.00 0.00 72 1014.8
20260905194331 26 74 0.0 1.6 0.00 0.00 0.00 72 1014.9
20260905193816 26 129 0.0 1.6 0.00 0.00 0.00 73 1015.0
20260905193317 26 74 0.0 0.0 0.00 0.00 0.00 73 1015.0
20260905192828 26 84 0.0 0.0 0.00 0.00 0.00 73 1015.0
20260905192326 26 80 0.0 0.0 0.00 0.00 0.00 74 1015.1
20260905191838 26 93 0.0 0.0 0.00 0.00 0.00 74 1015.1